Lapse_Rate
5.3 5.4 5.4 5.4 5.4 5.4 5.4 5.4 5.4 5.5 5.5 5.5 5.6 5.7 5.7 5.7 5.6 5.8 5.9 6.1 6.1 6.2 6.2 6.1 6.0 6.1 6.0 6.1 6.3 6.2 6.0 6.1 6.2 6.1 6.1 6.0 5.7 6.2 6.0 5.5 5.3 5.5 5.5 6.1 6.3
5.5 5.5 5.5 5.5 5.5 5.5 5.5 5.5 5.6 5.6 5.6 5.6 5.6 5.6 5.7 5.8 5.7 5.7 5.9 6.1 6.2 6.1 6.0 6.0 5.9 6.0 5.7 6.2 6.2 6.1 6.0 6.0 5.9 5.5 5.7 6.0 5.7 6.1 5.7 5.4 5.6 5.6 6.0 5.9 6.1
5.5 5.6 5.6 5.7 5.6 5.6 5.6 5.6 5.7 5.7 5.7 5.6 5.6 5.6 5.6 5.7 5.8 5.8 5.8 6.1 6.2 6.3 6.1 6.1 6.1 6.1 5.9 6.1 6.3 6.3 6.0 6.1 6.1 5.7 5.8 5.8 6.1 6.1 5.5 5.6 5.5 5.2 5.9 5.8 5.9
5.6 5.7 5.8 5.8 5.8 5.8 5.7 5.7 5.8 5.7 5.7 5.6 5.6 5.6 5.6 5.7 5.4 5.8 5.8 6.0 6.3 6.3 6.2 6.1 6.1 6.1 6.2 6.2 6.6 5.9 6.5 6.3 6.0 5.9 5.8 5.7 6.1 6.1 5.6 5.6 5.5 5.3 5.9 6.0 6.1
5.7 5.8 5.8 5.8 5.8 5.8 5.7 5.7 5.7 5.7 5.7 5.6 5.6 5.6 5.7 5.6 5.9 5.8 5.9 6.0 6.2 6.4 6.2 6.1 6.2 6.2 6.4 6.2 6.3 5.8 6.2 6.2 6.0 6.0 5.9 5.9 5.7 5.9 5.6 5.7 5.7 5.7 5.8 5.8 5.8
5.7 5.8 5.8 5.8 5.8 5.8 5.7 5.7 5.7 5.7 5.7 5.7 5.6 5.6 5.6 5.0 5.7 5.8 5.9 6.0 6.2 6.3 6.2 6.1 6.2 6.6 6.2 6.2 6.3 6.5 6.2 6.2 6.1 5.6 5.3 5.5 5.6 5.5 5.8 5.8 5.7 5.7 5.5 5.9 5.8
5.7 5.7 5.8 5.9 5.8 5.7 5.7 5.6 5.6 5.6 5.6 5.6 5.6 5.6 5.6 5.5 5.6 5.7 5.8 6.1 6.2 6.2 6.0 6.3 6.7 6.6 6.6 6.2 6.5 6.4 6.3 6.3 6.2 6.1 5.6 5.8 5.7 5.8 5.9 6.0 5.9 5.6 5.4 5.8 5.8
5.8 5.8 5.9 5.9 5.9 5.8 5.8 5.7 5.6 5.5 5.5 5.5 5.5 5.5 5.1 5.7 5.9 6.0 6.0 6.1 6.3 6.2 6.2 6.4 6.9 7.0 6.4 6.7 6.6 6.2 6.5 6.7 6.3 6.2 6.1 6.1 6.1 6.0 6.0 6.0 5.6 5.6 5.4 5.8 5.9
6.0 6.0 6.0 6.0 5.9 5.8 5.7 5.6 5.5 5.5 5.5 5.5 5.5 5.4 5.1 5.6 5.8 6.0 6.3 6.3 6.2 6.3 6.3 6.4 6.6 6.8 7.0 7.0 7.0 6.7 7.4 7.1 6.6 6.5 6.3 6.2 6.3 6.1 5.9 5.9 5.7 5.6 5.6 5.8 5.7
6.1 6.1 6.1 6.2 6.1 6.0 5.9 5.7 5.6 5.7 5.6 5.6 5.6 5.5 5.4 5.1 5.6 5.8 6.0 6.1 6.1 6.3 6.4 6.4 6.5 7.0 7.4 7.6 8.3 7.9 7.9 7.4 7.2 6.8 6.3 6.3 6.2 6.3 6.2 6.0 5.7 5.5 5.7 5.7 5.7
6.1 6.2 6.2 6.3 6.3 6.2 6.1 5.9 5.8 5.9 5.8 5.7 5.5 5.7 5.5 5.4 5.4 5.5 5.8 6.0 6.1 6.0 6.5 6.5 7.0 7.5 8.2 8.1 7.9 7.5 7.4 7.6 7.3 7.1 6.4 6.4 6.3 6.4 6.4 6.3 6.0 5.9 5.8 5.9 5.8
6.0 6.1 6.3 6.4 6.5 6.4 6.2 5.9 5.8 5.9 6.0 6.1 6.0 5.8 5.7 5.5 5.2 5.3 5.7 5.8 6.0 6.4 6.4 6.7 7.2 8.1 7.6 7.3 7.5 7.8 8.2 8.1 7.6 7.5 6.8 6.8 6.6 6.3 6.8 6.8 6.5 6.4 6.1 6.2 5.8
6.2 6.1 6.2 6.2 6.4 6.6 6.4 6.1 6.0 6.0 6.3 6.2 6.1 6.0 5.8 5.7 5.7 5.6 5.6 6.1 6.3 6.6 6.6 7.2 7.8 7.3 7.3 7.6 7.7 8.0 8.4 8.5 8.0 7.3 7.3 7.1 7.3 6.8 7.0 6.8 6.7 6.7 6.6 6.4 6.1
6.4 6.3 6.3 6.3 6.3 6.6 6.7 6.4 6.2 6.3 6.4 6.5 6.2 6.0 6.1 5.9 5.9 5.9 5.8 6.1 6.3 6.8 6.8 6.9 7.2 7.1 7.3 7.7 8.0 9.4 9.2 8.2 7.8 7.8 8.0 7.5 7.5 7.5 7.2 7.4 7.2 7.0 6.7 6.6 6.4
6.0 6.3 6.3 6.2 6.2 6.4 6.5 6.4 6.3 6.4 8.0 6.8 6.3 6.4 6.3 6.2 6.3 6.1 6.0 6.1 6.7 6.8 6.9 7.9 7.4 7.4 7.6 8.2 8.4 9.3 8.8 8.7 8.4 8.5 8.3 8.1 8.7 8.0 8.0 7.5 7.0 7.4 6.8 6.4 6.1
5.6 6.0 5.9 5.9 6.1 6.2 6.2 6.2 6.2 6.4 7.6 6.9 6.8 6.5 6.5 6.5 6.4 6.4 6.4 6.3 6.7 7.0 7.1 7.5 7.4 7.8 8.3 8.3 8.4 8.8 8.7 8.5 8.4 9.3 9.5 8.5 9.0 8.6 8.3 7.9 7.8 7.6 7.4 7.2 6.8
5.5 5.8 6.0 5.8 5.9 6.1 6.0 6.0 6.2 7.1 7.1 7.1 7.0 6.9 7.1 7.1 6.8 6.6 6.4 6.5 7.1 7.4 7.8 7.9 7.9 8.0 8.1 8.5 8.4 8.6 9.3 9.4 9.5 9.6 9.6 8.4 8.7 9.0 8.2 8.2 7.9 7.7 7.6 7.4 7.2
5.4 5.6 5.8 5.8 5.8 5.9 5.8 5.5 6.6 7.1 7.4 7.0 7.4 7.4 7.6 7.6 7.4 7.2 7.0 7.2 7.3 7.7 8.3 8.8 8.9 8.3 8.3 9.0 9.0 8.7 9.5 9.4 9.1 9.3 9.7 8.8 9.2 9.1 8.3 8.4 8.2 7.8 7.6 7.3 7.2
5.4 5.6 5.8 5.8 5.6 5.6 5.5 5.7 6.9 7.2 7.0 7.2 7.4 7.7 7.8 7.8 7.9 7.5 7.5 7.8 8.0 7.7 8.3 9.2 9.6 8.7 8.6 8.8 9.3 9.4 9.0 9.3 9.2 9.5 9.5 9.6 9.4 8.5 8.5 8.4 8.3 7.9 7.6 7.5 7.5
5.2 5.4 5.6 5.7 5.7 5.5 5.2 6.0 6.5 6.3 6.7 7.1 7.8 7.8 8.5 8.2 7.9 7.8 8.1 8.2 8.2 8.2 8.2 8.9 9.5 8.8 8.5 8.7 8.9 9.2 9.4 9.4 9.5 9.6 9.4 9.6 9.1 9.3 8.2 7.8 8.1 8.0 8.1 7.8 7.5
5.1 5.2 5.4 5.6 5.5 5.3 5.3 5.9 6.1 5.9 6.5 6.7 7.5 7.7 8.0 8.3 8.2 8.4 8.5 8.6 8.4 8.7 8.6 9.0 9.1 8.9 8.7 8.9 9.5 9.0 9.4 9.0 9.6 9.6 9.9 9.8 9.7 9.1 8.4 7.8 7.9 7.7 7.6 7.7 7.4
5.0 4.8 5.3 5.4 5.3 4.9 5.5 5.4 5.5 6.0 6.2 6.4 6.7 7.2 7.5 7.7 8.1 8.4 8.4 8.8 8.8 8.8 8.7 9.1 9.5 9.4 9.5 9.0 9.3 9.2 9.6 9.5 9.5 9.4 9.2 9.1 9.5 8.3 8.2 8.0 7.7 7.5 7.3 7.2 7.1
5.0 5.1 5.2 5.3 5.2 5.3 5.2 5.1 5.2 5.8 6.1 6.3 6.7 6.9 7.2 7.6 7.8 8.1 8.4 8.5 8.6 8.7 8.9 9.0 9.3 9.6 9.2 8.7 8.6 8.9 8.8 8.9 9.5 9.4 9.5 9.6 9.4 8.1 7.8 7.6 7.4 7.1 7.2 7.0 6.7
4.9 4.7 4.8 5.1 5.3 5.1 4.9 5.4 5.5 5.5 5.8 6.0 6.5 7.0 7.1 7.3 7.5 7.8 8.2 8.4 8.8 8.9 8.9 9.0 9.4 9.5 9.5 9.5 9.5 9.1 8.9 8.8 9.3 9.5 9.5 9.4 9.4 7.6 7.5 7.2 7.2 7.2 7.1 7.0 6.5
4.6 4.3 4.9 4.6 4.5 5.0 5.1 5.0 5.5 5.9 5.8 5.9 6.3 6.6 7.3 7.5 7.8 7.8 8.1 8.3 8.7 9.0 9.0 9.0 9.4 9.4 9.4 9.3 9.2 9.4 9.5 8.8 8.6 9.1 9.0 9.4 8.5 8.1 7.3 7.1 7.0 7.0 7.0 6.8 6.6
4.2 4.3 4.5 4.5 4.9 5.0 4.8 5.2 5.4 5.8 5.7 6.4 6.3 6.5 6.6 7.3 7.7 8.2 8.0 7.9 8.5 8.7 8.6 8.8 9.3 9.3 9.4 9.1 9.1 9.4 8.9 8.5 8.3 8.4 8.2 8.1 8.0 7.6 7.4 7.3 7.0 7.0 6.8 6.5 6.5
4.2 4.2 4.1 3.8 4.1 4.7 5.2 5.1 5.2 5.2 5.6 6.0 5.7 6.3 6.6 7.2 6.9 6.8 6.9 7.9 7.7 7.7 8.4 8.8 9.3 9.0 9.4 9.2 9.3 8.8 8.6 8.5 8.1 8.0 7.8 8.0 8.1 7.4 7.4 7.2 6.9 7.0 6.8 6.7 6.4
Wind_Speed
14 14 13 13 13 13 12 11 11 10 10 11 11 10 9 10 15 6 7 2 1 11 5 9 8 5 5 2 1 1 3 3 1 6 6 5 7 6 8 11 7 4 8 20 20
16 15 15 15 14 14 14 13 12 10 10 10 10 8 8 8 7 9 4 4 4 11 10 11 8 6 3 1 0 3 2 4 3 5 6 5 5 7 8 11 10 10 17 20 19
17 16 16 16 15 15 14 13 12 11 10 9 9 8 8 9 6 3 10 9 7 6 6 5 4 5 2 3 2 2 3 3 6 7 9 5 6 3 5 8 7 12 19 19 17
18 18 17 17 17 17 15 14 12 10 9 9 8 7 8 7 2 5 10 10 7 6 7 7 6 6 2 1 3 0 4 2 9 9 8 5 2 5 1 6 3 12 18 18 17
19 19 19 19 18 18 17 14 12 10 9 8 8 7 7 6 6 6 11 11 10 7 9 8 7 3 2 2 3 4 6 7 7 9 7 7 4 2 3 3 8 16 15 16 14
21 20 20 20 20 19 18 15 12 10 8 8 7 7 6 4 2 6 10 10 7 8 7 7 2 2 1 1 3 4 8 10 8 8 5 4 2 4 3 9 12 16 15 14 13
22 22 22 21 22 21 19 16 12 9 8 7 6 5 6 7 2 6 9 10 6 6 7 3 1 7 2 5 7 11 9 8 6 7 7 11 6 6 4 9 14 15 14 13 13
23 23 23 23 23 23 20 16 12 8 7 6 6 5 3 3 5 7 7 7 6 4 2 0 4 2 4 8 6 3 5 3 7 8 6 8 4 6 4 2 12 15 13 13 13
24 25 24 24 23 22 21 15 6 6 5 7 6 5 7 4 7 9 7 8 9 6 2 2 5 3 6 10 8 5 2 5 7 6 9 9 6 9 9 12 12 14 14 13 13
26 27 26 25 23 22 15 5 8 11 5 5 4 5 5 5 9 9 5 11 10 10 5 6 6 9 9 10 4 2 7 3 2 9 9 9 5 8 8 10 8 10 14 13 13
27 28 27 26 22 21 6 4 5 5 7 9 3 3 4 8 10 9 10 8 8 11 10 9 9 12 12 10 6 4 3 4 4 4 6 5 6 10 11 12 14 14 14 15 14
28 28 28 29 28 11 5 5 6 5 6 7 7 6 4 4 9 10 10 11 11 14 6 8 13 10 4 2 8 6 2 5 4 4 5 2 6 9 13 15 15 16 15 10 13
28 27 28 29 26 3 5 2 2 7 6 7 7 7 9 11 8 14 14 6 12 13 13 15 5 2 7 8 10 10 6 2 7 4 7 4 7 9 11 10 15 16 16 13 14
27 24 25 34 7 5 2 5 6 4 5 11 9 8 9 9 7 6 15 9 7 11 10 10 12 7 11 14 12 12 4 3 2 7 1 7 1 8 10 12 14 14 15 15 14
27 22 21 11 10 4 4 3 4 4 5 11 8 7 11 10 13 9 11 9 8 9 9 7 10 13 13 18 15 10 3 3 6 10 6 9 6 8 5 9 14 15 15 16 16
26 23 20 4 4 7 7 7 4 7 6 10 10 12 14 12 8 12 12 8 2 6 11 9 2 7 13 12 15 10 6 4 7 9 9 9 6 8 6 1 5 4 10 12 13
29 27 10 4 2 5 5 5 6 8 4 10 11 12 17 11 11 13 15 15 10 11 12 13 13 9 8 10 11 14 14 8 8 8 3 3 5 6 5 4 2 3 4 4 9
32 28 7 5 5 6 6 8 10 3 7 3 4 11 14 12 13 13 12 13 16 11 2 10 13 14 13 14 12 18 16 9 7 9 5 6 6 2 5 5 3 3 1 2 5
33 2 3 1 4 4 7 12 5 8 2 6 8 11 16 10 8 12 15 13 13 16 9 8 4 7 6 7 7 13 11 10 11 5 8 5 5 7 9 7 7 4 2 1 3
8 4 3 5 5 6 9 15 7 4 4 6 11 7 15 17 13 11 13 12 13 15 17 2 4 7 7 9 5 10 4 8 9 13 10 6 7 7 9 10 9 5 3 1 1
5 4 4 1 4 7 10 14 11 6 5 4 6 6 9 6 15 13 8 8 13 13 15 11 8 9 9 12 15 8 10 8 9 5 9 10 8 4 2 6 10 6 3 2 2
4 3 3 2 5 4 10 6 2 9 9 6 5 8 7 5 9 12 13 15 14 11 12 18 9 11 12 5 3 7 9 11 9 12 9 9 8 5 6 5 7 5 1 1 3
7 3 2 4 5 7 5 9 9 9 9 8 9 6 4 9 5 9 7 4 8 14 9 10 11 8 10 10 7 10 11 11 9 7 9 9 1 6 8 7 6 4 3 3 2
4 3 3 3 1 6 3 8 9 6 12 10 13 12 10 12 10 6 6 2 6 16 5 7 16 13 9 7 8 14 10 13 13 11 9 9 7 10 8 9 9 7 5 3 1
2 3 3 1 4 5 5 3 6 8 7 6 8 12 12 14 14 14 14 11 6 4 6 14 14 14 13 5 6 10 11 14 15 15 10 5 3 2 7 9 9 8 8 6 4
5 4 2 6 4 7 4 5 9 8 6 10 11 5 6 10 11 9 2 9 12 9 12 13 12 11 12 10 10 10 11 11 14 12 9 6 9 2 5 5 9 11 9 8 4
2 2 5 1 4 5 3 3 4 3 7 10 8 8 10 9 7 12 13 14 15 10 14 14 13 12 16 12 10 12 15 15 14 12 14 11 6 8 7 8 10 11 9 7 6
Wind_Direction
360 353 348 342 338 333 330 328 324 325 323 322 324 324 321 318 299 222 232 70 153 159 209 158 188 172 204 127 206 246 263 177 168 156 119 123 132 104 104 137 108 44 135 136 146
352 348 345 343 339 334 329 327 322 322 321 322 322 321 311 318 257 237 107 102 183 164 190 185 183 200 188 174 77 291 342 45 41 151 131 129 135 100 142 148 140 93 109 135 151
354 349 346 343 339 334 331 328 323 320 318 321 318 314 304 298 231 114 126 150 161 206 235 226 217 241 249 253 56 10 24 84 94 100 136 128 119 77 158 176 151 139 142 149 161
348 347 344 339 334 332 330 325 321 316 315 311 308 303 298 244 156 69 135 142 174 223 204 195 207 236 245 26 68 169 71 92 126 124 123 104 57 123 151 59 117 143 152 155 165
345 342 336 335 332 328 327 323 318 310 303 300 292 293 264 210 87 91 136 149 170 198 210 202 222 267 329 78 110 75 98 104 126 113 81 95 53 78 203 182 138 144 157 161 167
343 337 332 332 331 328 325 322 313 298 288 282 282 284 255 197 67 140 168 171 198 212 196 214 297 339 346 67 336 104 107 121 124 122 104 112 206 244 148 149 144 157 165 163 164
341 336 333 332 331 329 326 317 305 289 271 260 259 268 252 63 122 158 181 203 189 234 200 171 315 254 192 127 122 133 120 130 134 130 129 168 200 191 112 155 157 167 169 162 169
341 335 333 331 331 329 325 312 296 264 242 237 230 252 52 112 138 163 177 182 200 192 284 25 270 255 271 118 142 210 205 135 128 152 151 203 160 134 118 234 172 171 174 172 178
340 335 333 331 331 329 322 311 287 190 195 191 227 260 118 145 193 166 181 177 168 176 178 270 246 226 177 206 176 190 72 86 142 190 159 206 122 159 169 204 195 182 180 184 182
339 334 333 332 332 332 328 307 133 153 192 221 262 235 166 125 140 157 158 154 160 162 176 209 215 211 222 235 3 111 147 119 97 182 199 188 152 154 184 202 215 206 188 191 193
339 333 332 331 332 329 286 204 213 178 202 277 87 356 129 120 153 177 169 176 157 192 194 202 217 217 210 230 28 166 2 28 81 150 207 212 184 175 178 186 212 212 200 197 205
338 331 330 330 331 318 263 279 48 8 291 207 234 244 223 188 175 160 180 196 192 197 192 190 227 218 359 274 245 264 213 100 96 142 218 154 208 184 178 195 202 202 215 214 227
336 331 329 329 327 253 305 327 90 329 258 164 188 207 183 198 196 174 197 188 202 214 209 236 201 70 225 215 242 245 252 107 346 168 215 247 201 191 196 202 203 216 218 223 197
333 330 330 328 295 343 231 132 306 271 263 147 188 176 173 209 194 164 201 190 199 220 217 241 250 224 233 229 229 248 217 236 199 226 215 213 162 170 182 202 210 217 217 212 223
328 328 326 328 316 256 54 306 309 233 260 140 140 121 157 202 126 179 185 197 204 179 207 168 200 211 227 225 218 253 352 269 232 228 234 174 252 114 177 209 208 213 217 216 212
324 324 326 198 230 286 296 294 231 229 236 160 150 179 178 201 168 145 183 224 316 209 219 276 144 227 233 216 219 228 222 219 210 240 234 146 278 163 155 135 127 191 214 226 229
321 318 302 282 351 334 295 213 220 243 130 168 182 178 199 179 171 176 190 200 212 204 204 198 208 213 217 196 204 210 218 206 216 197 233 128 231 87 133 172 166 157 184 219 232
320 316 173 265 300 300 243 211 233 280 219 103 194 189 204 188 210 199 193 211 213 246 249 205 172 195 190 232 185 208 224 237 211 222 217 138 240 122 134 157 167 168 195 238 245
314 303 226 231 265 224 219 214 220 236 261 217 181 212 204 201 244 207 218 215 201 209 236 188 181 145 200 197 246 171 232 285 280 204 284 263 161 210 171 193 190 194 209 276 339
318 294 52 359 190 204 216 231 232 272 279 231 237 215 219 196 200 203 189 211 211 208 233 120 186 195 155 185 201 274 252 220 234 269 244 196 233 270 186 199 183 188 159 64 58
268 267 76 254 237 200 218 229 249 229 264 267 238 240 245 212 222 199 207 203 204 195 210 232 256 139 171 208 197 188 219 229 296 294 269 255 242 128 245 178 183 160 140 47 20
301 252 65 242 213 211 228 235 349 247 208 248 277 278 254 200 220 232 227 233 189 168 194 217 228 182 204 119 303 273 255 200 228 187 236 300 293 117 121 144 158 148 158 110 350
322 305 149 261 250 210 206 251 253 256 231 235 243 235 275 248 242 222 229 268 197 203 204 179 231 207 205 184 192 226 214 235 274 309 272 273 105 129 131 154 160 171 166 165 323
292 268 150 203 309 284 270 241 247 205 261 264 250 250 242 243 233 258 240 209 259 230 66 220 245 228 252 229 198 199 215 222 235 251 267 224 281 158 168 185 178 174 168 163 12
271 64 7 307 150 308 260 292 254 241 218 232 229 244 249 244 246 245 250 264 219 166 228 223 234 234 253 277 230 240 237 208 238 258 267 334 272 37 180 193 190 171 165 163 126
321 332 310 283 276 268 187 240 258 245 256 224 236 186 246 251 259 297 316 277 257 187 216 225 242 198 225 220 231 243 249 251 235 246 252 253 259 48 127 156 173 176 175 184 172
27 243 285 192 258 256 258 273 281 319 257 264 292 285 257 270 329 306 290 277 271 289 224 222 218 206 230 200 228 244 246 237 240 227 233 235 262 136 170 184 181 184 191 204 198